Wetterdaten: Mittwoch, 20.05.2015
Datum Zeit Temp. A. Feuchte A. Luftdruck Regen Wind Richtung Richtung Sonnenschein ET UV Solar Taupunkt Windchill Windben Empfang
20.05.2015 00:00 12,1 C 97 % 1010,7 hPa 0,0 l/m 0,0 km/h (0 Bft) SW 218 0 min 0,000 mm 0,0 UV-I 0 W/m 11,6 C 12,1 C 0,0 km/h (0 Bft) 0,00 %
20.05.2015 00:15 12,1 C 97 % 1010,4 hPa 0,0 l/m 0,0 km/h (0 Bft) SW 218 0 min 0,000 mm 0,0 UV-I 0 W/m 11,6 C 12,1 C 0,0 km/h (0 Bft) 0,00 %
20.05.2015 00:30 12,1 C 97 % 1010,3 hPa 0,0 l/m 0,0 km/h (0 Bft) S 187 0 min 0,000 mm 0,0 UV-I 0 W/m 11,6 C 12,1 C 0,0 km/h (0 Bft) 0,00 %
20.05.2015 00:45 12,1 C 97 % 1010,4 hPa 0,0 l/m 0,0 km/h (0 Bft) SW 218 0 min 0,000 mm 0,0 UV-I 0 W/m 11,6 C 12,1 C 0,0 km/h (0 Bft) 0,00 %
20.05.2015 01:00 12,0 C 97 % 1010,1 hPa 0,0 l/m 0,0 km/h (0 Bft) SW 224 0 min 0,000 mm 0,0 UV-I 0 W/m 11,5 C 12,0 C 0,0 km/h (0 Bft) 0,00 %
20.05.2015 01:15 12,0 C 97 % 1009,8 hPa 0,0 l/m 0,0 km/h (0 Bft) W-SW 251 0 min 0,000 mm 0,0 UV-I 0 W/m 11,5 C 12,0 C 0,0 km/h (0 Bft) 0,00 %
20.05.2015 01:30 11,9 C 97 % 1009,9 hPa 0,0 l/m 0,0 km/h (0 Bft) S 175 0 min 0,000 mm 0,0 UV-I 0 W/m 11,4 C 11,9 C 0,0 km/h (0 Bft) 0,00 %
20.05.2015 01:45 11,9 C 97 % 1009,3 hPa 0,0 l/m 0,4 km/h (0 Bft) S 177 0 min 0,000 mm 0,0 UV-I 0 W/m 11,4 C 11,9 C 4,0 km/h (1 Bft) 0,00 %
20.05.2015 02:00 11,8 C 97 % 1009,3 hPa 0,0 l/m 1,8 km/h (1 Bft) SW 234 0 min 0,000 mm 0,0 UV-I 0 W/m 11,3 C 11,8 C 4,0 km/h (1 Bft) 0,00 %
20.05.2015 02:15 11,7 C 97 % 1009,2 hPa 0,0 l/m 0,0 km/h (0 Bft) SW 216 0 min 0,000 mm 0,0 UV-I 0 W/m 11,2 C 11,7 C 0,0 km/h (0 Bft) 0,00 %
20.05.2015 02:30 11,6 C 96 % 1009,3 hPa 0,0 l/m 0,0 km/h (0 Bft) S-SW 195 0 min 0,000 mm 0,0 UV-I 0 W/m 11,0 C 11,6 C 0,0 km/h (0 Bft) 0,00 %
20.05.2015 02:45 11,6 C 96 % 1009,6 hPa 0,0 l/m 0,0 km/h (0 Bft) S-SW 204 0 min 0,000 mm 0,0 UV-I 0 W/m 11,0 C 11,6 C 0,0 km/h (0 Bft) 0,00 %
20.05.2015 03:00 11,6 C 96 % 1009,4 hPa 0,0 l/m 0,0 km/h (0 Bft) S-SW 198 0 min 0,000 mm 0,0 UV-I 0 W/m 11,0 C 11,6 C 0,0 km/h (0 Bft) 0,00 %
20.05.2015 03:15 11,7 C 97 % 1009,5 hPa 0,3 l/m 0,0 km/h (0 Bft) S 178 0 min 0,000 mm 0,0 UV-I 0 W/m 11,2 C 11,7 C 0,0 km/h (0 Bft) 0,00 %
20.05.2015 03:30 11,8 C 97 % 1009,4 hPa 0,0 l/m 0,0 km/h (0 Bft) O 85 0 min 0,000 mm 0,0 UV-I 0 W/m 11,3 C 11,8 C 0,0 km/h (0 Bft) 0,00 %
20.05.2015 03:45 11,7 C 97 % 1009,4 hPa 0,3 l/m 0,7 km/h (0 Bft) W-SW 251 0 min 0,000 mm 0,0 UV-I 0 W/m 11,2 C 11,7 C 4,0 km/h (1 Bft) 0,00 %
20.05.2015 04:00 11,7 C 97 % 1009,3 hPa 0,0 l/m 0,0 km/h (0 Bft) S 182 0 min 0,000 mm 0,0 UV-I 0 W/m 11,2 C 11,7 C 0,0 km/h (0 Bft) 0,00 %
20.05.2015 04:15 11,6 C 97 % 1009,1 hPa 0,0 l/m 0,0 km/h (0 Bft) S-SW 206 0 min 0,000 mm 0,0 UV-I 0 W/m 11,1 C 11,6 C 0,0 km/h (0 Bft) 0,00 %
20.05.2015 04:30 11,6 C 97 % 1008,8 hPa 0,0 l/m 0,0 km/h (0 Bft) S 183 0 min 0,000 mm 0,0 UV-I 0 W/m 11,1 C 11,6 C 0,0 km/h (0 Bft) 0,00 %
20.05.2015 04:45 11,6 C 97 % 1008,8 hPa 0,0 l/m 0,0 km/h (0 Bft) S 188 0 min 0,000 mm 0,0 UV-I 0 W/m 11,1 C 11,6 C 0,0 km/h (0 Bft) 0,00 %
20.05.2015 05:00 11,6 C 97 % 1008,6 hPa 0,0 l/m 0,0 km/h (0 Bft) S 191 0 min 0,000 mm 0,0 UV-I 0 W/m 11,1 C 11,6 C 0,0 km/h (0 Bft) 0,00 %
20.05.2015 05:15 11,6 C 97 % 1008,7 hPa 0,0 l/m 0,0 km/h (0 Bft) SW 235 0 min 0,000 mm 0,0 UV-I 0 W/m 11,1 C 11,6 C 0,0 km/h (0 Bft) 0,00 %
20.05.2015 05:30 11,6 C 97 % 1008,8 hPa 0,0 l/m 0,0 km/h (0 Bft) S-SW 198 0 min 0,000 mm 0,0 UV-I 0 W/m 11,1 C 11,6 C 0,0 km/h (0 Bft) 0,00 %
20.05.2015 05:45 11,6 C 97 % 1008,7 hPa 0,0 l/m 0,0 km/h (0 Bft) SW 219 0 min 0,000 mm 0,0 UV-I 0 W/m 11,1 C 11,6 C 0,0 km/h (0 Bft) 0,00 %
20.05.2015 06:00 11,6 C 97 % 1008,7 hPa 0,0 l/m 0,0 km/h (0 Bft) S 183 0 min 0,000 mm 0,0 UV-I 0 W/m 11,1 C 11,6 C 0,0 km/h (0 Bft) 0,00 %
20.05.2015 06:15 11,5 C 97 % 1008,8 hPa 0,0 l/m 0,0 km/h (0 Bft) S-SW 202 0 min 0,000 mm 0,0 UV-I 0 W/m 11,0 C 11,5 C 0,0 km/h (0 Bft) 0,00 %
20.05.2015 06:30 11,5 C 97 % 1008,7 hPa 0,0 l/m 0,0 km/h (0 Bft) SW 223 0 min 0,000 mm 0,0 UV-I 0 W/m 11,0 C 11,5 C 0,0 km/h (0 Bft) 0,00 %
20.05.2015 06:45 11,5 C 97 % 1008,9 hPa 0,0 l/m 0,0 km/h (0 Bft) S-SW 199 0 min 0,000 mm 0,0 UV-I 3 W/m 11,0 C 11,5 C 0,0 km/h (0 Bft) 0,00 %
20.05.2015 07:00 11,4 C 98 % 1008,8 hPa 0,3 l/m 0,0 km/h (0 Bft) S-SW 194 0 min 0,000 mm 0,0 UV-I 1 W/m 11,1 C 11,4 C 0,0 km/h (0 Bft) 0,00 %
20.05.2015 07:15 11,2 C 98 % 1008,7 hPa 0,0 l/m 0,0 km/h (0 Bft) SW 216 0 min 0,000 mm 0,0 UV-I 25 W/m 10,9 C 11,2 C 0,0 km/h (0 Bft) 0,00 %
20.05.2015 07:30 11,1 C 98 % 1008,8 hPa 0,0 l/m 0,0 km/h (0 Bft) S-SW 199 0 min 0,000 mm 0,0 UV-I 19 W/m 10,8 C 11,1 C 0,0 km/h (0 Bft) 0,00 %
20.05.2015 07:45 11,0 C 97 % 1009,1 hPa 0,0 l/m 0,0 km/h (0 Bft) S 191 0 min 0,000 mm 0,0 UV-I 20 W/m 10,5 C 11,0 C 0,0 km/h (0 Bft) 0,00 %
20.05.2015 08:00 10,9 C 97 % 1009,1 hPa 0,3 l/m 0,7 km/h (0 Bft) W-SW 256 0 min 0,000 mm 0,0 UV-I 30 W/m 10,4 C 10,9 C 4,0 km/h (1 Bft) 0,00 %
20.05.2015 08:15 10,9 C 97 % 1009,4 hPa 0,9 l/m 0,4 km/h (0 Bft) W-SW 252 0 min 0,000 mm 0,0 UV-I 35 W/m 10,4 C 10,9 C 4,0 km/h (1 Bft) 0,00 %
20.05.2015 08:30 10,7 C 97 % 1009,5 hPa 0,6 l/m 0,7 km/h (0 Bft) N-NO 23 0 min 0,000 mm 1,0 UV-I 37 W/m 10,2 C 10,7 C 4,0 km/h (1 Bft) 0,00 %
20.05.2015 08:45 10,6 C 97 % 1009,6 hPa 0,6 l/m 0,4 km/h (0 Bft) S 191 0 min 0,000 mm 0,0 UV-I 65 W/m 10,1 C 10,6 C 4,0 km/h (1 Bft) 0,00 %
20.05.2015 09:00 10,5 C 97 % 1009,7 hPa 0,0 l/m 0,0 km/h (0 Bft) S-SW 195 0 min 0,000 mm 0,0 UV-I 26 W/m 10,0 C 10,5 C 0,0 km/h (0 Bft) 0,00 %
20.05.2015 09:15 10,2 C 98 % 1009,9 hPa 0,6 l/m 0,4 km/h (0 Bft) S 191 0 min 0,000 mm 0,0 UV-I 32 W/m 9,9 C 10,2 C 4,0 km/h (1 Bft) 0,00 %
20.05.2015 09:30 9,9 C 98 % 1010,1 hPa 1,2 l/m 0,7 km/h (0 Bft) W-SW 256 0 min 0,000 mm 0,0 UV-I 30 W/m 9,6 C 9,9 C 4,0 km/h (1 Bft) 0,00 %
20.05.2015 09:45 9,5 C 97 % 1010,3 hPa 0,6 l/m 10,4 km/h (2 Bft) S-SW 212 0 min 0,000 mm 1,0 UV-I 53 W/m 9,0 C 6,8 C 15,8 km/h (3 Bft) 0,00 %
20.05.2015 10:00 9,4 C 98 % 1010,6 hPa 0,0 l/m 0,4 km/h (0 Bft) N-NW 348 0 min 0,000 mm 0,0 UV-I 82 W/m 9,1 C 9,4 C 4,0 km/h (1 Bft) 0,00 %
20.05.2015 10:15 9,4 C 98 % 1010,6 hPa 0,3 l/m 0,0 km/h (0 Bft) SW 218 0 min 0,000 mm 1,0 UV-I 65 W/m 9,1 C 9,4 C 0,0 km/h (0 Bft) 0,00 %
20.05.2015 10:30 9,5 C 97 % 1010,7 hPa 0,3 l/m 0,0 km/h (0 Bft) SW 229 0 min 0,000 mm 1,0 UV-I 101 W/m 9,0 C 9,5 C 0,0 km/h (0 Bft) 0,00 %
20.05.2015 10:45 9,5 C 97 % 1010,9 hPa 0,0 l/m 2,9 km/h (1 Bft) W-SW 252 0 min 0,000 mm 0,0 UV-I 100 W/m 9,0 C 9,5 C 7,9 km/h (2 Bft) 0,00 %
20.05.2015 11:00 9,5 C 97 % 1011,2 hPa 0,6 l/m 0,4 km/h (0 Bft) S 172 0 min 0,000 mm 1,0 UV-I 54 W/m 9,0 C 9,5 C 4,0 km/h (1 Bft) 0,00 %
20.05.2015 11:15 9,5 C 97 % 1011,4 hPa 0,3 l/m 0,0 km/h (0 Bft) S-SW 192 0 min 0,000 mm 1,0 UV-I 55 W/m 9,0 C 9,5 C 0,0 km/h (0 Bft) 0,00 %
20.05.2015 11:30 9,5 C 97 % 1011,8 hPa 0,6 l/m 0,7 km/h (0 Bft) W-SW 252 0 min 0,000 mm 0,0 UV-I 71 W/m 9,0 C 9,5 C 4,0 km/h (1 Bft) 0,00 %
20.05.2015 11:45 9,4 C 97 % 1011,9 hPa 0,6 l/m 1,4 km/h (1 Bft) S-SW 194 0 min 0,000 mm 1,0 UV-I 54 W/m 8,9 C 9,4 C 4,0 km/h (1 Bft) 0,00 %
20.05.2015 12:00 9,4 C 98 % 1012,3 hPa 0,3 l/m 0,0 km/h (0 Bft) SW 224 0 min 0,000 mm 1,0 UV-I 43 W/m 9,1 C 9,4 C 0,0 km/h (0 Bft) 0,00 %
20.05.2015 12:15 9,5 C 97 % 1012,4 hPa 0,6 l/m 0,7 km/h (0 Bft) W-SW 255 0 min 0,000 mm 1,0 UV-I 130 W/m 9,0 C 9,5 C 4,0 km/h (1 Bft) 0,00 %
20.05.2015 12:30 9,5 C 97 % 1012,9 hPa 0,6 l/m 5,8 km/h (2 Bft) SW 230 0 min 0,000 mm 1,0 UV-I 98 W/m 9,0 C 9,5 C 7,9 km/h (2 Bft) 0,00 %
20.05.2015 12:45 9,5 C 96 % 1012,8 hPa 0,6 l/m 9,4 km/h (2 Bft) W-SW 258 0 min 0,000 mm 1,0 UV-I 120 W/m 8,9 C 7,4 C 11,9 km/h (2 Bft) 0,00 %
20.05.2015 13:00 9,6 C 97 % 1013,1 hPa 0,3 l/m 4,0 km/h (1 Bft) W-NW 300 0 min 0,000 mm 1,0 UV-I 215 W/m 9,1 C 9,6 C 7,9 km/h (2 Bft) 0,00 %
20.05.2015 13:15 9,5 C 96 % 1013,4 hPa 0,0 l/m 0,4 km/h (0 Bft) SO 133 0 min 0,000 mm 1,0 UV-I 150 W/m 8,9 C 9,5 C 4,0 km/h (1 Bft) 0,00 %
20.05.2015 13:30 9,6 C 95 % 1013,3 hPa 0,3 l/m 7,2 km/h (2 Bft) W-SW 254 0 min 0,000 mm 2,0 UV-I 140 W/m 8,8 C 9,0 C 7,9 km/h (2 Bft) 0,00 %
20.05.2015 13:45 10,1 C 93 % 1013,2 hPa 0,0 l/m 2,9 km/h (1 Bft) S-SW 207 0 min 0,000 mm 1,0 UV-I 345 W/m 9,0 C 10,1 C 4,0 km/h (1 Bft) 0,00 %
20.05.2015 14:00 9,8 C 92 % 1013,5 hPa 0,3 l/m 2,2 km/h (1 Bft) O-NO 61 0 min 0,000 mm 1,0 UV-I 158 W/m 8,6 C 9,8 C 7,9 km/h (2 Bft) 0,00 %
20.05.2015 14:15 10,0 C 92 % 1013,5 hPa 0,0 l/m 4,7 km/h (1 Bft) SW 229 0 min 0,000 mm 2,0 UV-I 255 W/m 8,8 C 10,0 C 7,9 km/h (2 Bft) 0,00 %
20.05.2015 14:30 9,7 C 91 % 1013,8 hPa 0,0 l/m 0,4 km/h (0 Bft) S 191 0 min 0,000 mm 1,0 UV-I 107 W/m 8,3 C 9,7 C 4,0 km/h (1 Bft) 0,00 %
20.05.2015 14:45 9,6 C 92 % 1013,7 hPa 0,3 l/m 5,4 km/h (1 Bft) W 259 0 min 0,000 mm 1,0 UV-I 164 W/m 8,4 C 9,6 C 7,9 km/h (2 Bft) 0,00 %
20.05.2015 15:00 9,5 C 91 % 1014,1 hPa 0,0 l/m 0,7 km/h (0 Bft) N-NW 343 0 min 0,000 mm 1,0 UV-I 118 W/m 8,1 C 9,5 C 4,0 km/h (1 Bft) 0,00 %
20.05.2015 15:15 9,2 C 93 % 1014,1 hPa 0,0 l/m 2,2 km/h (1 Bft) W-NW 303 0 min 0,000 mm 1,0 UV-I 126 W/m 8,1 C 9,2 C 4,0 km/h (1 Bft) 0,00 %
20.05.2015 15:30 9,2 C 93 % 1014,3 hPa 0,3 l/m 0,0 km/h (0 Bft) SW 217 0 min 0,000 mm 1,0 UV-I 113 W/m 8,1 C 9,2 C 0,0 km/h (0 Bft) 0,00 %
20.05.2015 15:45 9,2 C 93 % 1014,4 hPa 0,3 l/m 3,2 km/h (1 Bft) S-SW 196 0 min 0,000 mm 1,0 UV-I 120 W/m 8,1 C 9,2 C 7,9 km/h (2 Bft) 0,00 %
20.05.2015 16:00 8,8 C 93 % 1014,5 hPa 0,0 l/m 0,0 km/h (0 Bft) SO 137 0 min 0,000 mm 1,0 UV-I 99 W/m 7,7 C 8,8 C 0,0 km/h (0 Bft) 0,00 %
20.05.2015 16:15 8,9 C 93 % 1014,7 hPa 0,3 l/m 5,4 km/h (1 Bft) W-SW 256 0 min 0,000 mm 1,0 UV-I 116 W/m 7,8 C 8,9 C 7,9 km/h (2 Bft) 0,00 %
20.05.2015 16:30 8,6 C 93 % 1014,8 hPa 0,3 l/m 0,0 km/h (0 Bft) SW 230 0 min 0,000 mm 1,0 UV-I 76 W/m 7,5 C 8,6 C 0,0 km/h (0 Bft) 0,00 %
20.05.2015 16:45 8,8 C 94 % 1014,9 hPa 0,3 l/m 1,8 km/h (1 Bft) W-SW 255 0 min 0,000 mm 1,0 UV-I 122 W/m 7,9 C 8,8 C 4,0 km/h (1 Bft) 0,00 %
20.05.2015 17:00 8,8 C 94 % 1015,1 hPa 0,3 l/m 0,0 km/h (0 Bft) S 181 0 min 0,000 mm 0,0 UV-I 167 W/m 7,9 C 8,8 C 0,0 km/h (0 Bft) 0,00 %
20.05.2015 17:15 8,5 C 94 % 1015,3 hPa 0,3 l/m 0,4 km/h (0 Bft) W-SW 252 0 min 0,000 mm 0,0 UV-I 57 W/m 7,6 C 8,5 C 4,0 km/h (1 Bft) 0,00 %
20.05.2015 17:30 8,4 C 95 % 1015,6 hPa 0,3 l/m 1,8 km/h (1 Bft) SW 233 0 min 0,000 mm 1,0 UV-I 42 W/m 7,6 C 8,4 C 4,0 km/h (1 Bft) 0,00 %
20.05.2015 17:45 8,4 C 96 % 1015,8 hPa 0,0 l/m 0,4 km/h (0 Bft) O-SO 123 0 min 0,000 mm 0,0 UV-I 55 W/m 7,8 C 8,4 C 4,0 km/h (1 Bft) 0,00 %
20.05.2015 18:00 8,3 C 96 % 1016,0 hPa 0,6 l/m 2,2 km/h (1 Bft) W-SW 254 0 min 0,000 mm 0,0 UV-I 40 W/m 7,7 C 8,3 C 7,9 km/h (2 Bft) 0,00 %
20.05.2015 18:15 8,1 C 96 % 1016,2 hPa 0,3 l/m 2,9 km/h (1 Bft) SW 216 0 min 0,000 mm 1,0 UV-I 50 W/m 7,5 C 8,1 C 4,0 km/h (1 Bft) 0,00 %
20.05.2015 18:30 8,3 C 96 % 1016,3 hPa 0,3 l/m 0,4 km/h (0 Bft) S 178 0 min 0,000 mm 0,0 UV-I 75 W/m 7,7 C 8,3 C 4,0 km/h (1 Bft) 0,00 %
20.05.2015 18:45 7,8 C 95 % 1016,4 hPa 0,3 l/m 6,8 km/h (2 Bft) W-SW 255 0 min 0,000 mm 0,0 UV-I 31 W/m 7,0 C 7,5 C 7,9 km/h (2 Bft) 0,00 %
20.05.2015 19:00 7,9 C 96 % 1016,7 hPa 0,3 l/m 1,8 km/h (1 Bft) W-SW 256 0 min 0,000 mm 0,0 UV-I 33 W/m 7,3 C 7,9 C 4,0 km/h (1 Bft) 0,00 %
20.05.2015 19:15 7,9 C 96 % 1016,9 hPa 0,0 l/m 0,0 km/h (0 Bft) S-SW 195 0 min 0,000 mm 0,0 UV-I 21 W/m 7,3 C 7,9 C 0,0 km/h (0 Bft) 0,00 %
20.05.2015 19:30 8,0 C 96 % 1017,0 hPa 0,0 l/m 0,0 km/h (0 Bft) S-SW 203 0 min 0,000 mm 0,0 UV-I 8 W/m 7,4 C 8,0 C 0,0 km/h (0 Bft) 0,00 %
20.05.2015 19:45 8,0 C 96 % 1016,8 hPa 0,0 l/m 0,7 km/h (0 Bft) SW 222 0 min 0,000 mm 0,0 UV-I 5 W/m 7,4 C 8,0 C 4,0 km/h (1 Bft) 0,00 %
20.05.2015 20:00 7,9 C 97 % 1017,0 hPa 0,3 l/m 0,0 km/h (0 Bft) W-SW 254 0 min 0,000 mm 0,0 UV-I 0 W/m 7,5 C 7,9 C 0,0 km/h (0 Bft) 0,00 %
20.05.2015 20:15 7,9 C 97 % 1017,3 hPa 0,0 l/m 0,4 km/h (0 Bft) S-SW 199 0 min 0,000 mm 0,0 UV-I 0 W/m 7,5 C 7,9 C 4,0 km/h (1 Bft) 0,00 %
20.05.2015 20:30 7,7 C 97 % 1017,3 hPa 0,3 l/m 2,2 km/h (1 Bft) SW 222 0 min 0,000 mm 0,0 UV-I 0 W/m 7,3 C 7,7 C 4,0 km/h (1 Bft) 0,00 %
20.05.2015 20:45 7,7 C 97 % 1017,5 hPa 0,3 l/m 0,4 km/h (0 Bft) SW 217 0 min 0,000 mm 0,0 UV-I 0 W/m 7,3 C 7,7 C 4,0 km/h (1 Bft) 0,00 %
20.05.2015 21:00 7,7 C 97 % 1017,9 hPa 0,6 l/m 0,0 km/h (0 Bft) W-SW 255 0 min 0,000 mm 0,0 UV-I 0 W/m 7,3 C 7,7 C 0,0 km/h (0 Bft) 0,00 %
20.05.2015 21:15 7,7 C 97 % 1018,0 hPa 0,0 l/m 2,9 km/h (1 Bft) SW 218 0 min 0,000 mm 0,0 UV-I 0 W/m 7,3 C 7,7 C 7,9 km/h (2 Bft) 0,00 %
20.05.2015 21:30 7,5 C 97 % 1018,3 hPa 0,3 l/m 0,0 km/h (0 Bft) W 260 0 min 0,000 mm 0,0 UV-I 0 W/m 7,1 C 7,5 C 0,0 km/h (0 Bft) 0,00 %
20.05.2015 21:45 7,5 C 97 % 1018,2 hPa 0,0 l/m 0,7 km/h (0 Bft) SW 217 0 min 0,000 mm 0,0 UV-I 0 W/m 7,1 C 7,5 C 4,0 km/h (1 Bft) 0,00 %
20.05.2015 22:00 7,4 C 97 % 1018,1 hPa 0,3 l/m 0,0 km/h (0 Bft) O-NO 59 0 min 0,000 mm 0,0 UV-I 0 W/m 7,0 C 7,4 C 0,0 km/h (0 Bft) 0,00 %
20.05.2015 22:15 7,3 C 97 % 1018,1 hPa 0,0 l/m 0,0 km/h (0 Bft) S 178 0 min 0,000 mm 0,0 UV-I 0 W/m 6,9 C 7,3 C 0,0 km/h (0 Bft) 0,00 %
20.05.2015 22:30 7,2 C 97 % 1018,4 hPa 0,3 l/m 0,0 km/h (0 Bft) W-SW 256 0 min 0,000 mm 0,0 UV-I 0 W/m 6,8 C 7,2 C 0,0 km/h (0 Bft) 0,00 %
20.05.2015 22:45 7,3 C 97 % 1018,2 hPa 0,0 l/m 0,0 km/h (0 Bft) S 184 0 min 0,000 mm 0,0 UV-I 0 W/m 6,9 C 7,3 C 0,0 km/h (0 Bft) 0,00 %
20.05.2015 23:00 7,3 C 97 % 1018,1 hPa 0,3 l/m 0,0 km/h (0 Bft) S 185 0 min 0,000 mm 0,0 UV-I 0 W/m 6,9 C 7,3 C 0,0 km/h (0 Bft) 0,00 %
20.05.2015 23:15 7,1 C 97 % 1018,3 hPa 0,0 l/m 0,4 km/h (0 Bft) S-SW 201 0 min 0,000 mm 0,0 UV-I 0 W/m 6,7 C 7,1 C 4,0 km/h (1 Bft) 0,00 %
20.05.2015 23:30 7,1 C 97 % 1018,3 hPa 0,0 l/m 0,0 km/h (0 Bft) S 186 0 min 0,000 mm 0,0 UV-I 0 W/m 6,7 C 7,1 C 0,0 km/h (0 Bft) 0,00 %
20.05.2015 23:45 7,1 C 97 % 1018,2 hPa 0,0 l/m 0,0 km/h (0 Bft) O 96 0 min 0,000 mm 0,0 UV-I 0 W/m 6,7 C 7,1 C 0,0 km/h (0 Bft) 0,00 %
_ Min-Zeit 23:15 14:30 05:00 - 00:00 - - - - - - 23:15 09:45 00:00 00:00
Minimum _ 7,1 C 91 % 1008,6 hPa - 0,0 km/h (0 Bft) - - - - - - 6,7 C 6,8 C 0,0 km/h (0 Bft) 0,00 %
_ Max-Zeit 00:00 07:00 22:30 09:30 09:45 - - 00:00 00:00 13:30 13:45 00:00 00:00 09:45 00:00
Maximum _ 12,1 C 98 % 1018,4 hPa 1,2 l/m 10,4 km/h
S-SW (2 Bft)
- - 0 min 0,000 mm 2,0 UV-I 345 W/m 11,6 C 12,1 C 15,8 km/h
S-SW (3 Bft)
0,00 %
Durchschnitt _ 9,7 C 96 % 1012,7 hPa #18,6 l/m 1,1 km/h (1 Bft) W-SW - #0 min. #0,000 mm 1,1 UV-I 82 W/m 9,2 C 9,7 C 2,6 km/h (1 Bft) 0,00 %